TimePST,TemperatureF,Dew PointF,Humidity,Sea Level PressureIn,VisibilityMPH,Wind Direction,Wind SpeedMPH,Gust SpeedMPH,PrecipitationIn,Events,Conditions,WindDirDegrees,DateUTC
12:56 AM,-4.0,-8.0,83,30.73,10.0,East,5.8,-,N/A,,Clear,80,2013-01-20 08:56:00
1:56 AM,-5.1,-9.0,83,30.73,10.0,East,4.6,-,N/A,,Clear,90,2013-01-20 09:56:00
2:56 AM,-6.0,-9.9,83,30.72,10.0,ENE,4.6,-,N/A,,Clear,60,2013-01-20 10:56:00
3:56 AM,-7.1,-11.0,83,30.73,10.0,East,4.6,-,N/A,,Clear,80,2013-01-20 11:56:00
4:56 AM,-7.1,-11.9,79,30.76,10.0,ENE,3.5,-,N/A,,Clear,70,2013-01-20 12:56:00
5:56 AM,-9.0,-13.0,83,30.78,10.0,East,3.5,-,N/A,,Clear,100,2013-01-20 13:56:00
6:56 AM,-9.9,-14.1,82,30.81,10.0,ENE,6.9,-,N/A,,Clear,70,2013-01-20 14:56:00
7:30 AM,-9.4,-11.2,92,30.49,2.5,ENE,3.5,-,N/A,,Scattered Clouds,70,2013-01-20 15:30:00
7:39 AM,-9.4,-11.2,92,30.49,2.5,East,3.5,-,N/A,,Mostly Cloudy,90,2013-01-20 15:39:00
7:46 AM,-9.4,-11.2,92,30.49,6.0,East,3.5,-,N/A,,Mostly Cloudy,80,2013-01-20 15:46:00
7:56 AM,-8.0,-9.9,91,30.81,7.0,Calm,Calm,-,N/A,,Overcast,0,2013-01-20 15:56:00
8:12 AM,-7.6,-9.4,92,30.50,6.0,East,4.6,-,N/A,,Overcast,100,2013-01-20 16:12:00
8:47 AM,-5.8,-9.4,84,30.50,10.0,ENE,4.6,-,N/A,,Scattered Clouds,70,2013-01-20 16:47:00
8:56 AM,-4.0,-8.0,83,30.83,10.0,East,6.9,-,N/A,,Clear,80,2013-01-20 16:56:00
9:09 AM,-4.0,-7.6,85,30.51,5.0,ENE,4.6,-,N/A,,Partly Cloudy,70,2013-01-20 17:09:00
9:56 AM,-0.9,-2.9,91,30.83,10.0,SE,3.5,-,N/A,,Clear,140,2013-01-20 17:56:00
10:56 AM,3.9,-0.9,80,30.78,10.0,ESE,3.5,-,N/A,,Clear,120,2013-01-20 18:56:00
11:56 AM,9.0,1.9,73,30.76,10.0,Calm,Calm,-,N/A,,Clear,0,2013-01-20 19:56:00
12:56 PM,14.0,5.0,67,30.71,10.0,Calm,Calm,-,N/A,,Clear,0,2013-01-20 20:56:00
1:56 PM,16.0,6.1,65,30.69,10.0,Calm,Calm,-,N/A,,Clear,0,2013-01-20 21:56:00
2:56 PM,19.9,7.0,57,30.68,10.0,Calm,Calm,-,N/A,,Clear,0,2013-01-20 22:56:00
3:56 PM,18.0,7.0,62,30.68,10.0,Calm,Calm,-,N/A,,Clear,0,2013-01-20 23:56:00
4:56 PM,10.9,3.0,70,30.71,10.0,Calm,Calm,-,N/A,,Clear,0,2013-01-21 00:56:00
5:56 PM,9.0,1.9,73,30.73,10.0,Calm,Calm,-,N/A,,Clear,0,2013-01-21 01:56:00
6:56 PM,7.0,-0.0,73,30.74,10.0,Calm,Calm,-,N/A,,Clear,0,2013-01-21 02:56:00
7:56 PM,7.0,1.9,80,30.74,10.0,Calm,Calm,-,N/A,,Clear,0,2013-01-21 03:56:00
8:56 PM,1.0,-4.0,79,30.76,10.0,ENE,3.5,-,N/A,,Clear,70,2013-01-21 04:56:00
9:56 PM,3.0,-0.9,84,30.75,10.0,Calm,Calm,-,N/A,,Clear,0,2013-01-21 05:56:00
10:56 PM,-2.0,-5.1,87,30.76,10.0,Calm,Calm,-,N/A,,Clear,0,2013-01-21 06:56:00
11:56 PM,1.0,-2.9,83,30.71,10.0,ENE,4.6,-,N/A,,Clear,60,2013-01-21 07:56:00